Regional Weather Roundup
Issued by NWS Tiyan, Guam

Home | Current Version | Previous Version | Text Only | Print | Product List | Glossary On
Versions: 1 2 3 4 5 6 7 8 9 10 11 12 13 14 15 16 17 18 19 20 21 22 23 24 25 26 27 28
000
ASGM40 PGUM 250112
RWRGUM
WEATHER ROUNDUP FOR THE MARIANAS
NATIONAL WEATHER SERVICE TIYAN GU
1100 AM CHST SAT OCT 25 2014

GUZ001>004-250200-
MARIANA ISLANDS-

CITY           SKY/WX    TMP DP  RH WIND       PRES   REMARKS
GUAM AIRPORT   MOSUNNY   88  75  66 E9        29.92F HX  97
ANDERSEN AFB   PTSUNNY   86  79  79 E10       29.92F HX  99
ROTA AIRPORT   PTSUNNY   82  77  83 E13       29.93F HX  91
TINIAN AP      PTSUNNY   84  77  79 E12       29.91R HX  94
SAIPAN AP      MOSUNNY   86  77  74 E10       29.93R HX  97

$$




USA.gov is the U.S. government's official web portal to all federal, state and local government web resources and services.